EW2755 Weather Reports


time (UTC)temp
C
wind
direction
speed
KPH
gust
KPH
rain 1hr
cm
rain 24hr
cm
rain mn
cm
humidity
%
barometer
mb
20260506214541 26 360 8.0 24.1 0.00 0.00 0.00 27 1010.9
20260506213101 26 344 4.8 19.3 0.00 0.00 0.00 26 1010.8
20260506211603 27 303 4.8 25.7 0.00 0.00 0.00 25 1010.9
20260506210047 27 211 6.4 22.5 0.00 0.00 0.00 25 1011.0
20260506204556 27 313 9.7 20.9 0.00 0.00 0.00 24 1011.1
20260506203047 27 308 11.3 22.5 0.00 0.00 0.00 24 1011.1
20260506201554 28 360 6.4 25.7 0.00 0.00 0.00 25 1010.7
20260506200040 28 325 8.0 22.5 0.00 0.00 0.00 26 1010.8
20260506194556 28 308 6.4 20.9 0.00 0.00 0.00 26 1010.8
20260506193045 28 344 4.8 19.3 0.00 0.00 0.00 28 1010.9
20260506191546 28 360 4.8 25.7 0.00 0.00 0.00 30 1011.0
20260506190043 28 0 1.6 22.5 0.00 0.00 0.00 31 1010.9
20260506184551 28 320 1.6 19.3 0.00 0.00 0.00 33 1011.1
20260506183058 27 57 9.7 29.0 0.00 0.00 0.00 33 1011.2
20260506181541 27 326 3.2 19.3 0.00 0.00 0.00 34 1011.1
20260506180047 27 304 4.8 17.7 0.00 0.00 0.00 35 1011.3
20260506174544 26 338 3.2 20.9 0.00 0.00 0.00 37 1011.3
20260506173051 26 304 4.8 12.9 0.00 0.00 0.00 38 1011.5
20260506171543 25 323 6.4 20.9 0.00 0.00 0.00 38 1011.8
20260506170106 25 17 4.8 19.3 0.00 0.00 0.00 39 1011.8
20260506164543 25 341 3.2 16.1 0.00 0.00 0.00 38 1011.8
20260506163054 24 352 1.6 17.7 0.00 0.00 0.00 39 1011.9
20260506161546 24 0 6.4 17.7 0.00 0.00 0.00 40 1012.0
20260506160045 23 92 4.8 19.3 0.00 0.00 0.00 43 1011.9
20260506154548 22 63 3.2 14.5 0.00 0.00 0.00 45 1012.2
20260506153040 22 0 0.0 12.9 0.00 0.00 0.00 45 1012.3
20260506151547 21 351 3.2 16.1 0.00 0.00 0.00 45 1012.5
20260506150046 21 0 0.0 14.5 0.00 0.00 0.00 46 1012.5
20260506144558 21 0 1.6 9.7 0.00 0.00 0.00 46 1012.4
20260506143041 19 313 1.6 6.4 0.00 0.00 0.00 51 1012.7
20260506141543 20 0 0.0 8.0 0.00 0.00 0.00 48 1012.5
20260506140045 17 0 0.0 9.7 0.00 0.00 0.00 55 1012.5
20260506134545 15 0 0.0 6.4 0.00 0.00 0.00 59 1012.5
20260506133044 15 77 0.0 3.2 0.00 0.00 0.00 60 1012.4
20260506131541 15 0 0.0 8.0 0.00 0.00 0.00 58 1012.3
20260506130041 15 0 0.0 8.0 0.00 0.00 0.00 57 1012.3
20260506124540 15 0 0.0 6.4 0.00 0.00 0.00 57 1012.3
20260506123041 15 0 0.0 3.2 0.00 0.00 0.00 60 1012.4
20260506121549 15 0 0.0 0.0 0.00 0.00 0.00 59 1012.3
20260506120045 15 0 0.0 3.2 0.00 0.00 0.00 58 1012.1
20260506114540 15 0 0.0 8.0 0.00 0.00 0.00 58 1012.1
20260506113043 15 0 0.0 1.6 0.00 0.00 0.00 59 1012.2
20260506111547 16 0 0.0 6.4 0.00 0.00 0.00 57 1012.0
20260506110046 16 0 0.0 3.2 0.00 0.00 0.00 57 1012.1
20260506104543 16 0 1.6 9.7 0.00 0.00 0.00 55 1011.8
20260506103048 16 0 0.0 1.6 0.00 0.00 0.00 55 1011.5
20260506101541 16 0 0.0 4.8 0.00 0.00 0.00 56 1011.4
20260506100041 16 0 0.0 4.8 0.00 0.00 0.00 52 1011.4
20260506094544 17 0 0.0 0.0 0.00 0.00 0.00 51 1011.2
20260506093046 17 0 1.6 8.0 0.00 0.00 0.00 51 1011.1
20260506091541 17 0 0.0 3.2 0.00 0.00 0.00 51 1011.1
20260506090049 17 0 0.0 0.0 0.00 0.00 0.00 49 1011.2
20260506084553 18 0 0.0 4.8 0.00 0.00 0.00 47 1011.2
20260506083049 18 0 0.0 6.4 0.00 0.00 0.00 48 1011.3
20260506081546 18 0 0.0 9.7 0.00 0.00 0.00 46 1011.1
20260506073053 18 190 0.0 3.2 0.00 0.00 0.00 45 1010.8
20260506071540 19 0 0.0 1.6 0.00 0.00 0.00 44 1010.6
20260506061555 21 0 0.0 4.8 0.00 0.00 0.00 39 1010.0
20260506050104 23 0 0.0 1.6 0.00 0.00 0.00 33 1009.7
20260506044546 24 224 0.0 4.8 0.00 0.00 0.00 31 1009.6
20260506043045 24 0 0.0 9.7 0.00 0.00 0.00 32 1009.6
20260506041542 23 0 1.6 11.3 0.00 0.00 0.00 33 1009.4
20260506040047 23 0 1.6 8.0 0.00 0.00 0.00 34 1009.2
20260506034548 23 0 0.0 11.3 0.00 0.00 0.00 33 1009.1
20260506033044 25 179 3.2 11.3 0.00 0.00 0.00 31 1008.8
20260506031550 25 0 0.0 11.3 0.00 0.00 0.00 32 1008.8
20260506030045 25 0 0.0 4.8 0.00 0.00 0.00 33 1008.6
20260506024553 26 0 0.0 6.4 0.00 0.00 0.00 33 1008.5
20260506023041 27 190 0.0 3.2 0.00 0.00 0.00 33 1008.4
20260506021558 27 0 0.0 9.7 0.00 0.00 0.00 35 1008.3
20260506020043 27 0 0.0 1.6 0.00 0.00 0.00 36 1008.1
20260506014546 28 0 0.0 4.8 0.00 0.00 0.00 32 1007.9
20260506013047 28 0 0.0 0.0 0.00 0.00 0.00 32 1008.0
20260506011554 28 63 0.0 8.0 0.00 0.00 0.00 31 1008.0
20260506010046 29 66 0.0 6.4 0.00 0.00 0.00 31 1008.0
20260506004541 29 0 0.0 12.9 0.00 0.00 0.00 30 1008.1
20260506003040 29 0 1.6 6.4 0.00 0.00 0.00 30 1008.1
20260506001550 29 0 0.0 12.9 0.00 0.00 0.00 30 1008.2
20260506000047 29 0 1.6 8.0 0.00 0.00 0.00 30 1008.3
20260505234542 30 71 0.0 14.5 0.00 0.00 0.00 29 1008.6
20260505233040 30 57 1.6 12.9 0.00 0.00 0.00 28 1008.7
20260505231601 30 57 0.0 9.7 0.00 0.00 0.00 28 1008.9
20260505230052 30 55 0.0 8.0 0.00 0.00 0.00 28 1009.1
20260505224543 30 67 1.6 16.1 0.00 0.00 0.00 28 1009.2
20260505223040 30 0 0.0 8.0 0.00 0.00 0.00 28 1009.4
20260505221541 30 107 0.0 9.7 0.00 0.00 0.00 27 1009.5
20260505220051 29 0 0.0 8.0 0.00 0.00 0.00 27 1009.7